Weather History for Lakenheath RAF, United Kingdom

Change the Weather History Date:

Thursday, October 11, 2012

  Actual Average (EGSC) Record (EGSC)
Temperature  
Mean Temperature 52 °F -  
Max Temperature 59 °F 58 °F 71 °F (2005)
Min Temperature 44 °F 47 °F 37 °F (1996)
Degree Days  
Heating Degree Days 14    
Growing Degree Days 2 (Base 50)    
Moisture  
Dew Point 52 °F    
Average Humidity 89    
Maximum Humidity 100    
Minimum Humidity 76    
Precipitation  
Precipitation 0.01 in - - ()
Sea Level Pressure  
Sea Level Pressure 29.59 in    
Wind  
Wind Speed 8 mph ()    
Max Wind Speed 15 mph    
Max Gust Speed 22 mph    
Visibility 5.8 miles    
Events Rain    
Averages and records for this station are not official NWS values.
T = Trace of Precipitation, MM = Missing Value Source: Averaged Metar Reports

Daily Weather History Graph

Daily Weather History Graph

Search for Another Location

Airport:

Trip Planner

Search our weather history database for the weather conditions in past years. The results will help you decide how hot, cold, wet, or windy it might be!

Date:

Astronomy

Oct. 11, 2012 Rise Set
Actual Time 7:16 AM BST 6:11 PM BST
Civil Twilight 6:42 AM BST 6:45 PM BST
Nautical Twilight 6:02 AM BST 7:24 PM BST
Astronomical Twilight 5:23 AM BST 8:04 PM BST
Moon 2:07 AM BST (10/11) 4:06 PM BST (10/11)
Length of Visible Light 12h 03m
Length of Day
10h 54m
Waning Crescent, 20% of the Moon is Illuminated
Oct 11
Waning Crescent
Oct 15
New
Oct 22
First Quarter
Oct 29
Full
Nov 7
Last Quarter

Hourly Weather History & Observations

Time (BST) Temp. Windchill Dew Point Humidity Pressure Visibility Wind Dir Wind Speed Gust Speed Precip Events Conditions
1:58 AM 44.1 °F 41.5 °F 41.0 °F 89% 29.87 in 6.2 mi ESE 4.6 mph - N/A   Clear
2:58 AM 44.4 °F 42.9 °F 41.0 °F 88% 29.84 in 6.2 mi East 3.5 mph - N/A   Partly Cloudy
3:58 AM 44.2 °F 41.8 °F 41.0 °F 88% 29.82 in 6.2 mi East 4.6 mph - N/A   Clear
4:58 AM 44.1 °F 42.5 °F 40.8 °F 88% 29.80 in 6.2 mi East 3.5 mph - N/A   Clear
5:58 AM 44.4 °F 42.0 °F 41.0 °F 88% 29.78 in 6.2 mi East 4.6 mph - N/A   Overcast
6:58 AM 44.2 °F 41.0 °F 40.3 °F 86% 29.76 in 6.2 mi East 5.8 mph - N/A   Scattered Clouds
7:46 AM 46.4 °F 43.5 °F 41.0 °F 81% 29.74 in 6.2 mi East 5.8 mph - N/A   Light Drizzle
7:58 AM 46.4 °F 44.3 °F 41.0 °F 81% 29.75 in 6.2 mi East 4.6 mph - N/A   Clear
8:58 AM 48.6 °F - 42.8 °F 80% 29.74 in 6.2 mi ESE 6.9 mph - N/A   Clear
9:56 AM 51.3 °F - 45.1 °F 80% 29.73 in 6.2 mi ESE 4.6 mph - N/A   Clear
10:58 AM 55.4 °F - 48.0 °F 76% 29.71 in 6.2 mi SE 12.7 mph 17.3 mph N/A   Partly Cloudy
11:31 AM 55.4 °F - 50.0 °F 82% 29.69 in 6.2 mi ESE 15.0 mph 20.7 mph N/A   Mostly Cloudy
11:58 AM 56.7 °F - 50.2 °F 79% 29.68 in 6.2 mi ESE 12.7 mph 18.4 mph N/A   Overcast
12:58 PM 57.7 °F - 50.7 °F 77% 29.66 in 6.2 mi SE 13.8 mph 21.9 mph N/A   Overcast
1:58 PM 57.9 °F - 51.3 °F 78% 29.64 in 6.2 mi SE 13.8 mph - N/A   Overcast
2:43 PM 59.0 °F - 51.8 °F 77% 29.60 in 6.2 mi ESE 13.8 mph 19.6 mph N/A   Mostly Cloudy
2:58 PM 59.0 °F - 52.2 °F 78% 29.61 in 6.2 mi ESE 13.8 mph - N/A   Mostly Cloudy
3:12 PM 59.0 °F - 51.8 °F 77% 29.60 in 6.2 mi ESE 15.0 mph - N/A   Mostly Cloudy
3:45 PM 59.0 °F - 53.6 °F 82% 29.59 in 6.2 mi ESE 11.5 mph - N/A   Overcast
3:58 PM 58.1 °F - 52.9 °F 83% 29.60 in 6.2 mi ESE 11.5 mph 20.7 mph N/A   Overcast
4:26 PM 57.2 °F - 53.6 °F 88% 29.58 in 6.2 mi ESE 15.0 mph 18.4 mph N/A   Light Drizzle
4:40 PM 57.2 °F - 53.6 °F 88% 29.58 in 6.2 mi ESE 10.4 mph 19.6 mph N/A   Light Drizzle
4:53 PM 55.4 °F - 53.6 °F 94% 29.57 in 6.2 mi ESE 12.7 mph 20.7 mph N/A   Overcast
4:58 PM 55.9 °F - 53.4 °F 91% 29.58 in 6.2 mi SE 13.8 mph - 0.00 in   Overcast
5:31 PM 55.4 °F - 53.6 °F 94% 29.56 in 5.0 mi ESE 11.5 mph 19.6 mph N/A   Overcast
5:52 PM 55.4 °F - 53.6 °F 94% 29.56 in 5.0 mi ESE 11.5 mph - N/A   Overcast
5:58 PM 55.6 °F - 53.2 °F 92% 29.56 in 5.0 mi ESE 12.7 mph 18.4 mph N/A   Overcast
6:22 PM 55.4 °F - 53.6 °F 94% 29.55 in 3.7 mi ESE 10.4 mph - N/A   Overcast
6:32 PM 55.4 °F - 53.6 °F 94% 29.55 in 3.1 mi ESE 11.5 mph - N/A   Overcast
6:54 PM 55.4 °F - 53.6 °F 94% 29.54 in 3.7 mi ESE 10.4 mph - N/A   Overcast
6:58 PM 55.6 °F - 54.1 °F 95% 29.55 in 3.7 mi ESE 10.4 mph - N/A   Overcast
6:59 PM 55.4 °F - 53.6 °F 94% 29.54 in 3.7 mi East 11.5 mph - N/A   Overcast
7:23 PM 55.4 °F - 53.6 °F 94% 29.54 in 5.0 mi East 11.5 mph - N/A   Overcast
7:40 PM 55.4 °F - 55.4 °F 100% 29.54 in 5.6 mi ESE 10.4 mph - N/A   Overcast
7:58 PM 56.1 °F - 55.0 °F 96% 29.54 in 5.6 mi SE 9.2 mph - N/A   Overcast
8:25 PM 57.2 °F - 55.4 °F 94% 29.52 in 6.2 mi SE 9.2 mph - N/A   Overcast
8:37 PM 57.2 °F - 55.4 °F 94% 29.52 in 6.2 mi ESE 11.5 mph - N/A   Overcast
8:58 PM 56.8 °F - 55.4 °F 95% 29.52 in 6.2 mi ESE 11.5 mph 18.4 mph N/A   Overcast
9:06 PM 57.2 °F - 55.4 °F 94% 29.50 in 6.2 mi ESE 12.7 mph - N/A Rain Light Rain
9:27 PM 57.2 °F - 55.4 °F 94% 29.50 in 6.2 mi SE 10.4 mph - N/A   Overcast
9:53 PM 57.2 °F - 55.4 °F 94% 29.50 in 6.2 mi ESE 12.7 mph - N/A   Light Drizzle
9:58 PM 57.2 °F - 55.8 °F 95% 29.51 in 6.2 mi ESE 10.4 mph 17.3 mph 0.00 in   Light Drizzle
10:18 PM 57.2 °F - 55.4 °F 94% 29.49 in 6.2 mi SE 10.4 mph - N/A   Light Drizzle
10:19 PM 57.2 °F - 55.4 °F 94% 29.49 in 6.2 mi ESE 9.2 mph - N/A   Light Drizzle
10:33 PM 57.2 °F - 55.4 °F 94% 29.48 in 6.2 mi ESE 10.4 mph - N/A Rain Light Rain
10:38 PM 57.2 °F - 55.4 °F 94% 29.48 in 5.6 mi SE 9.2 mph - N/A Rain Light Rain
10:50 PM 57.2 °F - 55.4 °F 94% 29.48 in 6.2 mi SE 12.7 mph - N/A   Overcast
10:57 PM 57.2 °F - 55.4 °F 94% 29.48 in 6.2 mi SE 10.4 mph - N/A   Overcast
10:58 PM 57.4 °F - 55.9 °F 95% 29.49 in 6.2 mi SE 10.4 mph - 0.01 in   Overcast
11:09 PM 57.2 °F - 55.4 °F 94% 29.47 in 6.2 mi ESE 9.2 mph - N/A   Overcast
11:28 PM 57.2 °F - 55.4 °F 94% 29.47 in 6.2 mi SE 10.4 mph - N/A   Overcast
11:30 PM 57.2 °F - 55.4 °F 94% 29.47 in 6.2 mi SE 9.2 mph - N/A   Overcast
11:58 PM 57.7 °F - 56.3 °F 95% 29.47 in 6.2 mi SE 10.4 mph - N/A   Overcast